TAM3030 SBSP-SBCY

Flight info

Callsign TAM3030
Flight time N/A
Altitude 36000
Route GERTU UL201 ROBID DCT RODAD UM775 SINIP
Aircraft A320/M-SDE3FGHIRWY/LB1

Departure

Time 2026-05-01 15:19
Airport Congonhas–Deputado Freitas Nobre Airport (SBSP)

Arrival

Time N/A
Airport Várzea Grande–Marechal Rondon International Airport (SBCY)
Time Latitude Longitude Altitude Speed Heading
2026-05-01 15:02 -23.62570 -46.65926 2601 ft 0 kts 237°
2026-05-01 15:11 -23.62567 -46.65920 2600 ft 2 kts 237°
2026-05-01 15:11 -23.62552 -46.65885 2601 ft 3 kts 296°
2026-05-01 15:11 -23.62559 -46.65877 2601 ft 2 kts 327°
2026-05-01 15:12 -23.62570 -46.65869 2601 ft 1 kts 327°
2026-05-01 15:12 -23.62571 -46.65869 2601 ft 0 kts 327°
2026-05-01 15:14 -23.62563 -46.65874 2601 ft 2 kts 327°
2026-05-01 15:14 -23.62490 -46.65885 2601 ft 7 kts 354°
2026-05-01 15:15 -23.62424 -46.65922 2601 ft 4 kts 326°
2026-05-01 15:15 -23.62344 -46.65979 2600 ft 6 kts 327°
2026-05-01 15:16 -23.62239 -46.66046 2600 ft 17 kts 340°
2026-05-01 15:16 -23.62106 -46.66134 2587 ft 8 kts 329°
2026-05-01 15:17 -23.62031 -46.66100 2587 ft 2 kts 83°
2026-05-01 15:18 -23.62680 -46.65633 2607 ft 125 kts 147°
2026-05-01 15:18 -23.63567 -46.65024 2823 ft 167 kts 148°
2026-05-01 15:19 -23.67003 -46.64113 4371 ft 199 kts 184°
2026-05-01 15:19 -23.70126 -46.64440 4785 ft 254 kts 185°
2026-05-01 15:19 -23.71981 -46.64627 5124 ft 279 kts 185°
2026-05-01 15:20 -23.75727 -46.65819 6687 ft 287 kts 226°
2026-05-01 15:20 -23.76825 -46.67594 7262 ft 284 kts 253°
2026-05-01 15:20 -23.77295 -46.69644 7377 ft 280 kts 261°
2026-05-01 15:21 -23.77733 -46.71713 7313 ft 281 kts 256°
2026-05-01 15:21 -23.78437 -46.73693 7244 ft 282 kts 246°
2026-05-01 15:21 -23.79454 -46.75550 7539 ft 288 kts 238°
2026-05-01 15:21 -23.80655 -46.77301 8449 ft 289 kts 233°
2026-05-01 15:22 -23.83205 -46.80776 10072 ft 296 kts 234°
2026-05-01 15:22 -23.84429 -46.82610 10652 ft 305 kts 236°
2026-05-01 15:22 -23.85556 -46.84641 11041 ft 321 kts 246°
2026-05-01 15:23 -23.86111 -46.87065 11198 ft 341 kts 268°
2026-05-01 15:23 -23.85720 -46.89622 11539 ft 353 kts 292°
2026-05-01 15:23 -23.84332 -46.91825 12172 ft 357 kts 316°
2026-05-01 15:23 -23.82242 -46.93280 12887 ft 359 kts 335°
2026-05-01 15:24 -23.79912 -46.94300 13572 ft 363 kts 337°
2026-05-01 15:24 -23.77544 -46.95320 14065 ft 369 kts 336°
2026-05-01 15:24 -23.75148 -46.96395 14561 ft 374 kts 336°
2026-05-01 15:24 -23.72744 -46.97499 15112 ft 377 kts 335°
2026-05-01 15:25 -23.70316 -46.98622 15677 ft 379 kts 335°
2026-05-01 15:25 -23.67915 -46.99733 16217 ft 381 kts 335°
2026-05-01 15:25 -23.65468 -47.00862 16761 ft 384 kts 335°
2026-05-01 15:25 -23.62993 -47.01999 17300 ft 386 kts 335°
2026-05-01 15:26 -23.60506 -47.03134 17828 ft 389 kts 335°
2026-05-01 15:26 -23.58001 -47.04276 18356 ft 392 kts 335°
2026-05-01 15:26 -23.55479 -47.05424 18820 ft 394 kts 335°
2026-05-01 15:26 -23.52940 -47.06578 19274 ft 396 kts 335°
2026-05-01 15:27 -23.50388 -47.07738 19724 ft 398 kts 335°
2026-05-01 15:27 -23.47821 -47.08906 20170 ft 401 kts 335°
2026-05-01 15:27 -23.45244 -47.10082 20606 ft 403 kts 335°
2026-05-01 15:28 -23.40077 -47.12436 21470 ft 407 kts 335°
2026-05-01 15:28 -23.37451 -47.13630 21879 ft 410 kts 335°
2026-05-01 15:28 -23.34814 -47.14828 22310 ft 412 kts 335°
2026-05-01 15:29 -23.29499 -47.17244 23146 ft 416 kts 335°
2026-05-01 15:29 -23.26822 -47.18464 23539 ft 419 kts 335°
2026-05-01 15:29 -23.21413 -47.20927 24229 ft 423 kts 335°
2026-05-01 15:30 -23.15988 -47.23380 24935 ft 427 kts 335°
2026-05-01 15:31 -23.04928 -47.28379 26198 ft 434 kts 335°
2026-05-01 15:31 -22.99366 -47.30893 26831 ft 437 kts 334°
2026-05-01 15:32 -22.93733 -47.33437 27444 ft 441 kts 334°
2026-05-01 15:32 -22.88051 -47.36003 28023 ft 444 kts 334°
2026-05-01 15:33 -22.79444 -47.39887 28852 ft 449 kts 334°
2026-05-01 15:34 -22.70747 -47.43802 29642 ft 454 kts 334°